Regional Weather Roundup
Issued by NWS

Home | Current Version | Previous Version | Graphics & Text | Print | Product List | Glossary On
Versions: 1 2 3 4 5 6 7 8 9 10 11 12 13 14 15 16 17 18 19 20 21 22 23 24 25 26 27 28 29 30 31 32 33 34 35 36 37 38 39 40 41 42 43 44 45 46 47 48 49 50
810
ASUS45 KPSR 192010
RWRAZ

ARIZONA HOURLY REGIONAL WEATHER ROUNDUP
NATIONAL WEATHER SERVICE PHOENIX AZ
100 PM MST SAT AUG 19 2017

NOTE: FAIR INDICATES FEW OR NO CLOUDS BELOW 12,000 FEET WITH NO
SIGNIFICANT WEATHER AND/OR OBSTRUCTIONS TO VISIBILITY.

AZZ001>003-036-192100-
NORTHWEST ARIZONA

CITY           SKY/WX    TMP DP  RH WIND       PRES   REMARKS
BULLHEAD CITY  SUNNY    104  48  15 SW14G20   29.81F HX 100
KINGMAN        SUNNY     96  47  18 SW13      30.04F
$$

AZZ004>008-015-016-018-192100-
NORTH CENTRAL ARIZONA

CITY           SKY/WX    TMP DP  RH WIND       PRES   REMARKS
GRAND CANYON   SUNNY     84  30  14 SW16G22   30.28F
WILLIAMS       SUNNY     81  41  24 W13       30.29F
PRESCOTT       SUNNY     87  42  20 SW9       30.17F
FLAGSTAFF      SUNNY     78  39  24 S10       30.31F
PAYSON           N/A     86  34  15 W8G15     30.18F
PAGE           SUNNY     94  36  13 MISG      30.04F
$$

AZZ009>014-017-192100-
NORTHEAST ARIZONA

CITY           SKY/WX    TMP DP  RH WIND       PRES   REMARKS
WINSLOW        SUNNY     95  33  11 W9G17     30.11F
SAINT JOHNS    SUNNY     87  32  14 S7        30.17F
WINDOW ROCK    MOSUNNY   89  30  12 W8        30.23F
SHOW LOW       SUNNY     84  39  20 S7        30.25F
$$

AZZ540-542>544-546-548-192100-
GREATER PHOENIX AREA

CITY           SKY/WX    TMP DP  RH WIND       PRES   REMARKS
PHOENIX        MOSUNNY  100  49  17 VRB3      29.87F
BUCKEYE          N/A     99  52  20 S9        29.88F
GLENDALE       MOSUNNY  100  48  17 S7        29.90F
LUKE AFB       SUNNY     99  49  18 SW3       29.87F
DEER VALLEY    SUNNY     99  48  17 VRB6      29.90F
SCOTTSDALE     SUNNY     98  46  17 CALM      29.92F
MESA-FALCON    MOSUNNY   97  48  19 W8        29.91F
MESA-GATEWAY     N/A     97  48  19 VRB5      29.91F
CHANDLER       SUNNY     99  45  15 SW6       29.90F
$$

AZZ539-553-192100-
SOUTHWEST MARICOPA COUNTY AND PINAL COUNTY

CITY           SKY/WX    TMP DP  RH WIND       PRES   REMARKS
CASA GRANDE    SUNNY     97  50  20 VRB3      29.92F
GILA BEND      FAIR     100  53  20 W5        29.85F
$$

AZZ503-504-507>509-192100-
SOUTHEAST ARIZONA

CITY           SKY/WX    TMP DP  RH WIND       PRES   REMARKS
TUCSON         PTSUNNY   91  50  24 W15       30.01F
DAVIS-MONTHAN  PTSUNNY   93  48  21 NW9       30.00F
RYAN FIELD     SUNNY     93  50  22 W8        30.01F
NOGALES        CLOUDY    86  57  37 W9        30.11F
SIERRA VISTA   CLOUDY    85  43  22 N6        30.15F
DOUGLAS        CLOUDY    83  59  44 S9        30.09F
SAFFORD        PTSUNNY   95  39  14 W14       29.97F
$$

AZZ532-192100-
SOUTHWEST ARIZONA

CITY           SKY/WX    TMP DP  RH WIND       PRES   REMARKS
YUMA           SUNNY    101  61  26 SW9G17    29.80F HX 102
$$

CAZ041-043-047-048-061-525>527-560>570-192100-
SOUTHERN CALIFORNIA

CITY           SKY/WX    TMP DP  RH WIND       PRES   REMARKS
DOWNTOWN L.A.  SUNNY     79  61  53 VRB3      29.93F
L.A. AIRPORT   MOSUNNY   73  61  65 SW12      29.95F
SAN DIEGO      PTSUNNY   76  62  62 W10       29.96F
BURBANK        SUNNY     81  58  45 SE7       29.93F
ONTARIO        MOSUNNY   84  58  40 W10       29.94F
RIVERSIDE      SUNNY     84  60  44 NW6       29.93F
PALM SPRINGS   SUNNY     99  55  23 SE3       29.85F
EL CENTRO NAS  SUNNY    102  42  13 VRB3      29.81F
IMPERIAL       SUNNY    102  54  20 VRB6      29.79F HX 100
BLYTHE         SUNNY    101  65  30 S12G18    29.82F HX 104
NEEDLES        SUNNY    107  37   9 S12       29.83F HX 101
$$

NVZ020-UTZ003-192100-
SOUTHERN NEVADA-UTAH

CITY           SKY/WX    TMP DP  RH WIND       PRES   REMARKS
LAS VEGAS      MOSUNNY  102  37  10 SE6       29.90F
SALT LAKE CITY MOSUNNY   93  34  12 VRB3      30.03F
$$

NMZ009-TXZ055-192100-
NEW MEXICO-WEST TEXAS

CITY           SKY/WX    TMP DP  RH WIND       PRES   REMARKS
ALBUQUERQUE    CLOUDY    88  38  17 SW14G20   30.15F
EL PASO        CLOUDY    81  62  52 CALM      30.09F
$$


........................KEY........................
SKY/WX - SKY CONDITION/WEATHER
TMP    - TEMPERATURE IN FAHRENHEIT
DP     - DEW POINT IN FAHRENHEIT
RH     - RELATIVE HUMIDITY IN PERCENT
WIND   - DIRECTION AND SPEED IN MILES PER HOUR (MPH)
VRB    - VARIABLE WIND DIRECTION
PRES   - MEAN SEA LEVEL PRESSURE IN INCHES OF MERCURY
         F - FALLING PRESSURE   R - RISING PRESSURE
         S - STEADY PRESSURE
VSB    - VISIBILITY IN MILES
HX     - HEAT INDEX IN FAHRENHEIT
WCI    - WIND CHILL INDEX IN FAHRENHEIT
TC     - TEMPERATURE IN CELSIUS WHICH IS ALSO KNOWN AS
         TEMPERATURE IN CENTIGRADE
AFB    - AIR FORCE BASE
         LUKE AFB IS LUKE AIR FORCE BASE
         DAVIS-MONTHAN IS DAVIS-MONTHAN AIR FORCE BASE
NAS    - NAVAL AIR STATION
         EL CENTRO NAS IS EL CENTRO NAVAL AIR STATION
N/A    - NOT AVAILABLE





USA.gov is the U.S. government's official web portal to all federal, state and local government web resources and services.